CW6451 Weather Reports


Display with metric or nautical units.
time (UTC)temp
F
wind
direction
speed
MPH
gust
MPH
rain 1hr
in
rain 24hr
in
rain mn
in
humidity
%
barometer
mb
20260508200038 51 278 1.0 7.0 0.07 0.07 0.07 87 1010.4
20260508194537 50 264 3.0 9.0 0.07 0.07 0.07 91 1010.5
20260508193046 50 279 6.0 25.0 0.06 0.06 0.06 83 1011.1
20260508191543 54 250 9.0 21.0 0.01 0.01 0.01 70 1010.4
20260508190041 57 215 7.0 18.0 0.00 0.00 0.00 60 1009.7
20260508184538 58 190 7.0 18.0 0.00 0.00 0.00 64 1009.5
20260508183043 58 203 7.0 25.0 0.00 0.00 0.00 64 1009.7
20260508181554 56 246 8.0 19.0 0.00 0.00 0.00 66 1009.6
20260508180046 55 180 7.0 19.0 0.00 0.00 0.00 62 1009.8
20260508174551 56 229 7.0 20.0 0.00 0.00 0.00 60 1009.9
20260508173046 56 234 8.0 18.0 0.00 0.00 0.00 61 1009.8
20260508171537 56 213 8.0 14.0 0.00 0.00 0.00 59 1009.9
20260508170045 57 196 8.0 19.0 0.00 0.00 0.00 56 1009.9
20260508164538 59 196 6.0 17.0 0.00 0.00 0.00 57 1010.0
20260508163046 58 192 5.0 17.0 0.00 0.00 0.00 57 1010.0
20260508161539 59 226 5.0 13.0 0.00 0.00 0.00 57 1010.0
20260508160039 59 190 3.0 12.0 0.00 0.00 0.00 60 1010.3
20260508154537 57 226 4.0 11.0 0.00 0.00 0.00 61 1010.7
20260508153038 59 0 2.0 8.0 0.00 0.00 0.00 58 1010.8
20260508151545 59 238 3.0 6.0 0.00 0.00 0.00 49 1010.8
20260508150037 58 262 2.0 7.0 0.00 0.00 0.00 49 1010.8
20260508144545 56 349 2.0 8.0 0.00 0.00 0.00 47 1010.8
20260508143038 55 360 2.0 8.0 0.00 0.00 0.00 51 1010.9
20260508141606 54 343 2.0 8.0 0.00 0.00 0.00 51 1010.9
20260508140039 53 254 2.0 8.0 0.00 0.00 0.00 51 1011.0
20260508134555 52 352 3.0 7.0 0.00 0.00 0.00 51 1011.1
20260508133044 52 28 2.0 8.0 0.00 0.00 0.00 55 1011.1
20260508131543 52 338 2.0 10.0 0.00 0.00 0.00 56 1011.2
20260508130040 51 352 6.0 14.0 0.00 0.00 0.00 53 1011.3
20260508124539 50 298 3.0 11.0 0.00 0.01 0.00 60 1011.3
20260508123049 50 300 2.0 10.0 0.00 0.01 0.00 59 1011.2
20260508121545 49 263 2.0 8.0 0.00 0.01 0.00 63 1011.2
20260508120044 48 277 2.0 6.0 0.00 0.01 0.00 62 1011.0
20260508114542 48 317 1.0 4.0 0.00 0.05 0.00 62 1011.1
20260508113049 47 0 0.0 4.0 0.00 0.05 0.00 64 1011.0
20260508111537 47 271 1.0 4.0 0.00 0.05 0.00 65 1011.1
20260508110038 47 298 0.0 3.0 0.00 0.05 0.00 66 1010.9
20260508104544 46 344 2.0 4.0 0.00 0.07 0.00 63 1010.9
20260508103045 46 303 0.0 3.0 0.00 0.07 0.00 68 1010.7
20260508101541 46 0 0.0 4.0 0.00 0.07 0.00 69 1010.6
20260508100039 46 0 0.0 4.0 0.00 0.07 0.00 68 1010.3
20260508094538 46 23 2.0 5.0 0.00 0.12 0.00 65 1010.1
20260508093044 46 0 0.0 2.0 0.00 0.12 0.00 67 1010.2
20260508091551 46 0 1.0 9.0 0.00 0.12 0.00 65 1010.0
20260508090045 46 32 4.0 10.0 0.00 0.12 0.00 63 1009.9
20260508084538 46 360 5.0 10.0 0.00 0.23 0.00 66 1009.9
20260508083053 46 348 4.0 12.0 0.00 0.23 0.00 64 1009.8
20260508081547 46 329 2.0 10.0 0.00 0.23 0.00 64 1009.6
20260508080039 46 17 2.0 8.0 0.00 0.23 0.00 63 1009.2
20260508074548 47 9 2.0 6.0 0.00 0.37 0.00 62 1009.0
20260508073044 47 307 2.0 5.0 0.00 0.37 0.00 60 1008.9
20260508071541 47 323 2.0 8.0 0.00 0.37 0.00 60 1008.8
20260508070039 48 344 2.0 9.0 0.00 0.37 0.00 60 1008.6
20260508064540 48 348 2.0 6.0 0.00 0.37 0.00 59 1008.6
20260508063038 48 327 2.0 6.0 0.00 0.37 0.00 60 1008.3
20260508061545 49 343 3.0 10.0 0.00 0.37 0.00 58 1008.2
20260508060045 50 310 3.0 11.0 0.00 0.37 0.00 56 1008.2
20260508054543 50 283 2.0 10.0 0.00 0.37 0.00 56 1008.1
20260508053046 51 350 3.0 13.0 0.00 0.37 0.00 54 1008.1
20260508051540 51 306 5.0 11.0 0.00 0.37 0.00 53 1008.2
20260508050038 52 335 4.0 13.0 0.00 0.37 0.00 55 1008.4
20260508044544 52 307 5.0 16.0 0.00 0.37 0.00 53 1008.5
20260508043045 52 309 4.0 13.0 0.00 0.37 0.00 54 1008.5
20260508041542 52 317 6.0 12.0 0.00 0.37 0.00 55 1008.5
20260508040040 52 298 4.0 10.0 0.00 0.37 0.00 55 1008.6
20260508034538 52 313 5.0 14.0 0.00 0.37 0.37 52 1008.6
20260508033038 52 285 5.0 14.0 0.00 0.37 0.37 52 1008.6
20260508031543 52 308 5.0 11.0 0.00 0.37 0.37 58 1008.6
20260508030045 52 5 4.0 10.0 0.00 0.37 0.37 56 1008.8
20260508024540 52 306 4.0 11.0 0.00 0.37 0.37 54 1009.0
20260508023038 52 291 4.0 13.0 0.00 0.37 0.37 54 1009.0
20260508021548 52 337 4.0 11.0 0.00 0.37 0.37 55 1008.8
20260508020045 53 325 5.0 11.0 0.00 0.37 0.37 53 1009.0
20260508014544 53 335 4.0 10.0 0.00 0.37 0.37 55 1008.8
20260508013044 53 349 1.0 10.0 0.00 0.37 0.37 54 1008.8
20260508011539 53 315 2.0 6.0 0.00 0.37 0.37 54 1008.6
20260508010038 54 302 2.0 6.0 0.00 0.37 0.37 52 1008.7
20260508004540 55 344 2.0 5.0 0.00 0.37 0.37 51 1008.4
20260508003043 55 333 3.0 12.0 0.00 0.37 0.37 46 1008.1
20260508001545 56 269 4.0 13.0 0.00 0.37 0.37 47 1007.6
20260508000044 56 302 4.0 10.0 0.00 0.37 0.37 50 1007.1
20260507234537 57 310 5.0 16.0 0.00 0.38 0.37 46 1007.2
20260507233045 58 280 5.0 15.0 0.00 0.38 0.37 45 1006.9
20260507231552 59 302 7.0 17.0 0.00 0.38 0.37 48 1006.9
20260507230047 60 344 3.0 15.0 0.00 0.38 0.37 48 1006.7
20260507224540 61 325 5.0 13.0 0.00 0.47 0.37 46 1006.5
20260507223038 63 334 5.0 12.0 0.00 0.47 0.37 48 1006.3
20260507221537 63 13 6.0 17.0 0.00 0.47 0.37 42 1006.2
20260507220038 65 43 6.0 11.0 0.00 0.47 0.37 42 1006.2
20260507214552 65 360 3.0 11.0 0.00 0.52 0.37 40 1006.1
20260507213048 65 341 5.0 11.0 0.00 0.52 0.37 40 1006.1
20260507211538 65 352 5.0 12.0 0.00 0.52 0.37 36 1006.0
20260507210050 65 333 6.0 15.0 0.00 0.52 0.37 43 1005.8
20260507204538 66 283 4.0 9.0 0.00 0.56 0.37 39 1005.8
20260507203047 66 355 5.0 10.0 0.00 0.56 0.37 40 1005.7
20260507201543 66 255 3.0 9.0 0.00 0.56 0.37 44 1005.7